Location: Budapest
(47.4979°N, 19.0402°E)
Time: 10:01:18
(UTC+02:00)

ISS - Pass Details

Date: 04 October 2020
Orbit: 418 x 420 km, 51.6° (Epoch: 21 October)

Event Time Altitude Azimuth Distance (km) Brightness Sun altitude
Rises 20:21:30 0° 288° (WNW) 2,368 1.6 -21.7°
Reaches altitude 10° 20:23:56 10° 272° (W) 1,501 0.1 -22.1°
Maximum altitude 20:26:31 21° 221° (SW) 1,008 -1.6 -22.5°
Enters shadow 20:26:45 21° 215° (SW) 1,012 -1.7 -22.5°
